,,PA_Meas_PMT16A,,PR_Meas_QMR101_102,,RH_Meas_QMH101,,SR_Meas_QMS101,,TA_Meas_QMH101,,GenWind,,GenWind,
time,status,PA,status,PR,status,RH,status,SR,status,TA,status,DirAvg,status,SpdAvg,
2015-01-05, 00:00:04,VALID,918.7,VALID,0,VALID,97.8923,VALID,0.107441,VALID,19.8378,VALID,4,VALID,0,
2015-01-05, 00:01:04,VALID,918.683,VALID,0,VALID,97.8999,VALID,0,VALID,19.8603,VALID,4,VALID,0,
2015-01-05, 00:02:04,VALID,918.652,VALID,0,VALID,97.9075,VALID,0,VALID,19.8798,VALID,7,VALID,0,
2015-01-05, 00:03:04,VALID,918.659,VALID,0,VALID,97.8999,VALID,0,VALID,19.9008,VALID,8,VALID,0,
2015-01-05, 00:04:04,VALID,918.636,VALID,0,VALID,97.9075,VALID,0,VALID,19.8993,VALID,18,VALID,0,
2015-01-05, 00:05:04,VALID,918.653,VALID,0,VALID,97.9228,VALID,0,VALID,19.8993,VALID,13,VALID,0,
2015-01-05, 00:06:04,VALID,918.647,VALID,0,VALID,97.8847,VALID,0,VALID,19.9188,VALID,17,VALID,0,
2015-01-05, 00:07:04,VALID,918.629,VALID,0,VALID,97.938,VALID,0,VALID,19.9383,VALID,17,VALID,0,
2015-01-05, 00:08:04,VALID,918.642,VALID,0,VALID,97.9075,VALID,0,VALID,19.9173,VALID,11,VALID,0,
2015-01-05, 00:09:04,VALID,918.632,VALID,0,VALID,97.9075,VALID,0,VALID,19.9368,VALID,7,VALID,0,
2015-01-05, 00:10:04,VALID,918.645,VALID,0.2,VALID,97.9228,VALID,0,VALID,19.9188,VALID,251,VALID,1.05,
2015-01-05, 00:11:04,VALID,918.601,VALID,0,VALID,97.9304,VALID,0,VALID,19.8993,VALID,8,VALID,0,
2015-01-05, 00:12:04,VALID,918.601,VALID,0,VALID,97.9228,VALID,0,VALID,19.8798,VALID,21,VALID,1.00859,
2015-01-05, 00:13:04,VALID,918.617,VALID,0,VALID,97.9304,VALID,0,VALID,19.8603,VALID,32,VALID,0.862109,
2015-01-05, 00:14:04,VALID,918.615,VALID,0,VALID,97.9533,VALID,0,VALID,19.8798,VALID,22,VALID,1.13398,
2015-01-05, 00:15:04,VALID,918.63,VALID,0,VALID,97.9456,VALID,0,VALID,19.8798,VALID,20,VALID,0.911328,
2015-01-05, 00:16:04,VALID,918.603,VALID,0,VALID,97.9533,VALID,0.107441,VALID,19.8978,VALID,20,VALID,0.995703,
2015-01-05, 00:17:04,VALID,918.603,VALID,0,VALID,97.9609,VALID,0.107441,VALID,19.8963,VALID,21,VALID,1.06836,
2015-01-05, 00:18:04,VALID,918.601,VALID,0,VALID,97.9685,VALID,0,VALID,19.8783,VALID,23,VALID,1.10938,
2015-01-05, 00:19:04,VALID,918.602,VALID,0,VALID,97.9685,VALID,0.107441,VALID,19.8783,VALID,18,VALID,1.3582,
2015-01-05, 00:20:04,VALID,918.598,VALID,0,VALID,97.9685,VALID,0,VALID,19.8783,VALID,19,VALID,1.04102,
2015-01-05, 00:21:04,VALID,918.543,VALID,0,VALID,97.9685,VALID,0.107441,VALID,19.8573,VALID,29,VALID,1.31641,
2015-01-05, 00:22:04,VALID,918.56,VALID,0,VALID,97.9838,VALID,0.107441,VALID,19.8783,VALID,25,VALID,1.3832,
2015-01-05, 00:23:04,VALID,918.572,VALID,0,VALID,97.9609,VALID,0.107441,VALID,19.8588,VALID,26,VALID,1.06719,
2015-01-05, 00:24:04,VALID,918.571,VALID,0,VALID,97.9609,VALID,0,VALID,19.8783,VALID,28,VALID,0.705078,
2015-01-05, 00:25:04,VALID,918.588,VALID,0,VALID,97.9838,VALID,0,VALID,19.8783,VALID,18,VALID,1.0832,
2015-01-05, 00:26:04,VALID,918.596,VALID,0,VALID,97.9609,VALID,0.107441,VALID,19.8783,VALID,18,VALID,0.879297,
2015-01-05, 00:27:04,VALID,918.632,VALID,0,VALID,97.9685,VALID,0.107441,VALID,19.8588,VALID,350,VALID,1.27461,
2015-01-05, 00:28:04,VALID,918.633,VALID,0,VALID,97.9914,VALID,0,VALID,19.8393,VALID,13,VALID,0.901953,
2015-01-05, 00:29:04,VALID,918.631,VALID,0,VALID,97.999,VALID,0,VALID,19.8183,VALID,356,VALID,0.589063,
2015-01-05, 00:30:04,VALID,918.625,VALID,0,VALID,97.9914,VALID,0.107441,VALID,19.8588,VALID,28,VALID,1.31602,
2015-01-05, 00:31:04,VALID,918.57,VALID,0,VALID,97.999,VALID,0,VALID,19.8603,VALID,8,VALID,1.38281,
2015-01-05, 00:32:04,VALID,918.582,VALID,0,VALID,97.9914,VALID,0,VALID,19.8603,VALID,18,VALID,0.135547,
2015-01-05, 00:33:04,VALID,918.589,VALID,0,VALID,97.9914,VALID,0,VALID,19.8393,VALID,318,VALID,0,
2015-01-05, 00:34:04,VALID,918.548,VALID,0,VALID,97.999,VALID,0,VALID,19.8408,VALID,17,VALID,1.06562,
2015-01-05, 00:35:04,VALID,918.543,VALID,0,VALID,97.999,VALID,0,VALID,19.8198,VALID,12,VALID,1.32695,
2015-01-05, 00:36:04,VALID,918.506,VALID,0,VALID,98.0219,VALID,0,VALID,19.8213,VALID,12,VALID,0.963281,
2015-01-05, 00:37:04,VALID,918.507,VALID,0,VALID,97.999,VALID,0,VALID,19.8213,VALID,4,VALID,0.457422,
2015-01-05, 00:38:04,VALID,918.484,VALID,0,VALID,97.9761,VALID,0,VALID,19.8213,VALID,5,VALID,0.455859,
2015-01-05, 00:39:04,VALID,918.467,VALID,0,VALID,97.9914,VALID,0,VALID,19.8603,VALID,6,VALID,0.512891,
2015-01-05, 00:40:04,VALID,918.423,VALID,0,VALID,98.0295,VALID,0,VALID,19.8213,VALID,25,VALID,1.9625,
2015-01-05, 00:41:04,VALID,918.401,VALID,0,VALID,98.0219,VALID,0,VALID,19.8018,VALID,15,VALID,2.18555,
2015-01-05, 00:42:04,VALID,918.367,VALID,0,VALID,98.0143,VALID,0,VALID,19.7808,VALID,9,VALID,1.27813,
2015-01-05, 00:43:04,VALID,918.31,VALID,0,VALID,98.0066,VALID,0,VALID,19.7823,VALID,8,VALID,2.05273,
2015-01-05, 00:44:04,VALID,918.298,VALID,0,VALID,98.0295,VALID,0,VALID,19.7628,VALID,359,VALID,1.47187,
2015-01-05, 00:45:04,VALID,918.18,VALID,0,VALID,98.0295,VALID,0,VALID,19.7628,VALID,12,VALID,1.53555,
2015-01-05, 00:46:04,VALID,918.175,VALID,0,VALID,98.0143,VALID,0,VALID,19.7613,VALID,27,VALID,1.31328,
2015-01-05, 00:47:04,VALID,918.138,VALID,0,VALID,98.0066,VALID,0.107441,VALID,19.7808,VALID,1,VALID,1.42852,
2015-01-05, 00:48:04,VALID,918.127,VALID,0,VALID,98.0143,VALID,0.107441,VALID,19.7613,VALID,348,VALID,0.885156,
2015-01-05, 00:49:04,VALID,918.103,VALID,0,VALID,97.999,VALID,0,VALID,19.7613,VALID,343,VALID,0.85625,
2015-01-05, 00:50:04,VALID,918.102,VALID,0,VALID,98.0066,VALID,0,VALID,19.7403,VALID,4,VALID,1.39883,
2015-01-05, 00:51:04,VALID,918.104,VALID,0,VALID,98.0143,VALID,0.107441,VALID,19.7613,VALID,352,VALID,1.45273,
2015-01-05, 00:52:04,VALID,918.081,VALID,0,VALID,98.0143,VALID,0,VALID,19.7418,VALID,1,VALID,1.40313,
2015-01-05, 00:53:04,VALID,918.134,VALID,0,VALID,98.0219,VALID,0,VALID,19.7418,VALID,6,VALID,1.06094,
2015-01-05, 00:54:04,VALID,918.159,VALID,0,VALID,98.0295,VALID,0,VALID,19.7418,VALID,335,VALID,1.60703,
2015-01-05, 00:55:04,VALID,918.19,VALID,0,VALID,98.0219,VALID,0,VALID,19.7418,VALID,9,VALID,1.57227,
2015-01-05, 00:56:04,VALID,918.215,VALID,0,VALID,98.0143,VALID,0,VALID,19.7418,VALID,348,VALID,1.01836,
2015-01-05, 00:57:04,VALID,918.251,VALID,0,VALID,98.0371,VALID,0,VALID,19.7223,VALID,316,VALID,0.732422,
2015-01-05, 00:58:04,VALID,918.263,VALID,0,VALID,98.0371,VALID,0,VALID,19.7028,VALID,359,VALID,0.9375,
2015-01-05, 00:59:04,VALID,918.287,VALID,0,VALID,98.0371,VALID,0,VALID,19.7223,VALID,314,VALID,0.837891,
2015-01-05, 01:00:04,VALID,918.283,VALID,0,VALID,98.0143,VALID,0.107441,VALID,19.7223,VALID,307,VALID,0.304688,
2015-01-05, 01:01:04,VALID,918.287,VALID,0,VALID,98.0219,VALID,0,VALID,19.7628,VALID,29,VALID,0.849219,
2015-01-05, 01:02:04,VALID,918.285,VALID,0,VALID,98.0448,VALID,0,VALID,19.7433,VALID,358,VALID,0.600391,
2015-01-05, 01:03:04,VALID,918.295,VALID,0,VALID,98.0371,VALID,0,VALID,19.7628,VALID,356,VALID,0.320703,
2015-01-05, 01:04:04,VALID,918.284,VALID,0,VALID,98.0448,VALID,0,VALID,19.7433,VALID,356,VALID,0.0484375,
2015-01-05, 01:05:04,VALID,918.244,VALID,0,VALID,98.0371,VALID,0,VALID,19.7628,VALID,360,VALID,0.380859,
2015-01-05, 01:06:04,VALID,918.235,VALID,0,VALID,98.0371,VALID,0,VALID,19.7628,VALID,360,VALID,0,
2015-01-05, 01:07:04,VALID,918.223,VALID,0,VALID,98.0371,VALID,0,VALID,19.7628,VALID,360,VALID,0.0292969,
2015-01-05, 01:08:04,VALID,918.265,VALID,0,VALID,98.0448,VALID,0,VALID,19.7823,VALID,360,VALID,0.462891,
2015-01-05, 01:09:04,VALID,918.258,VALID,0,VALID,98.0371,VALID,0,VALID,19.8018,VALID,347,VALID,0.292578,
2015-01-05, 01:10:04,VALID,918.263,VALID,0,VALID,98.0295,VALID,0,VALID,19.7823,VALID,346,VALID,0.525781,
2015-01-05, 01:11:04,VALID,918.214,VALID,0,VALID,98.0371,VALID,0,VALID,19.8018,VALID,24,VALID,0,
2015-01-05, 01:12:04,VALID,918.213,VALID,0,VALID,98.0524,VALID,0,VALID,19.7823,VALID,24,VALID,0,
2015-01-05, 01:13:04,VALID,918.156,VALID,0,VALID,98.06,VALID,0,VALID,19.8213,VALID,24,VALID,0,
2015-01-05, 01:14:04,VALID,918.11,VALID,0,VALID,98.0371,VALID,0,VALID,19.8213,VALID,11,VALID,0,
2015-01-05, 01:15:04,VALID,918.085,VALID,0,VALID,98.0371,VALID,0,VALID,19.8213,VALID,38,VALID,0,
2015-01-05, 01:16:04,VALID,918.062,VALID,0,VALID,98.0524,VALID,0,VALID,19.8393,VALID,25,VALID,0,
2015-01-05, 01:17:04,VALID,918.069,VALID,0,VALID,98.0448,VALID,0,VALID,19.8003,VALID,20,VALID,0,
2015-01-05, 01:18:04,VALID,918.041,VALID,0,VALID,98.0524,VALID,0,VALID,19.8198,VALID,14,VALID,0,
2015-01-05, 01:19:04,VALID,918.034,VALID,0,VALID,98.0752,VALID,0,VALID,19.8003,VALID,14,VALID,0,
2015-01-05, 01:20:04,VALID,918.012,VALID,0,VALID,98.0676,VALID,0,VALID,19.7808,VALID,13,VALID,0,
2015-01-05, 01:21:04,VALID,918.02,VALID,0,VALID,98.0676,VALID,0.107441,VALID,19.7808,VALID,15,VALID,0,
2015-01-05, 01:22:04,VALID,918,VALID,0,VALID,98.0524,VALID,0,VALID,19.8198,VALID,20,VALID,0,
2015-01-05, 01:23:04,VALID,917.975,VALID,0,VALID,98.0295,VALID,0.107441,VALID,19.8588,VALID,20,VALID,0,
2015-01-05, 01:24:04,VALID,917.985,VALID,0,VALID,98.0524,VALID,0.107441,VALID,19.8588,VALID,20,VALID,0,
2015-01-05, 01:25:04,VALID,917.957,VALID,0,VALID,98.0524,VALID,0.107441,VALID,19.8393,VALID,20,VALID,0,
2015-01-05, 01:26:04,VALID,917.917,VALID,0,VALID,98.0524,VALID,0,VALID,19.8393,VALID,15,VALID,0,
2015-01-05, 01:27:04,VALID,917.9,VALID,0,VALID,98.0829,VALID,0,VALID,19.8003,VALID,14,VALID,0,
2015-01-05, 01:28:04,VALID,917.873,VALID,0,VALID,98.0752,VALID,0,VALID,19.8003,VALID,14,VALID,0,
2015-01-05, 01:29:04,VALID,917.839,VALID,0,VALID,98.0752,VALID,0,VALID,19.7808,VALID,4,VALID,0,
2015-01-05, 01:30:04,VALID,917.812,VALID,0,VALID,98.0752,VALID,0.107441,VALID,19.7403,VALID,19,VALID,0,
2015-01-05, 01:31:04,VALID,917.841,VALID,0,VALID,98.06,VALID,0,VALID,19.7628,VALID,23,VALID,0,
2015-01-05, 01:32:04,VALID,917.8,VALID,0,VALID,98.0676,VALID,0,VALID,19.7418,VALID,21,VALID,0,
2015-01-05, 01:33:04,VALID,917.773,VALID,0,VALID,98.0752,VALID,0,VALID,19.7628,VALID,20,VALID,0,
2015-01-05, 01:34:04,VALID,917.774,VALID,0,VALID,98.0829,VALID,0,VALID,19.7628,VALID,20,VALID,0,
2015-01-05, 01:35:04,VALID,917.771,VALID,0,VALID,98.0752,VALID,0,VALID,19.7028,VALID,20,VALID,0,
2015-01-05, 01:36:04,VALID,917.768,VALID,0,VALID,98.0676,VALID,0,VALID,19.7628,VALID,21,VALID,0,
2015-01-05, 01:37:04,VALID,917.766,VALID,0,VALID,98.0905,VALID,0,VALID,19.7628,VALID,20,VALID,0,
2015-01-05, 01:38:04,VALID,917.75,VALID,0,VALID,98.0752,VALID,0,VALID,19.7628,VALID,349,VALID,0,
2015-01-05, 01:39:04,VALID,917.747,VALID,0,VALID,98.0905,VALID,0,VALID,19.7823,VALID,349,VALID,0,
2015-01-05, 01:40:04,VALID,917.716,VALID,0,VALID,98.0752,VALID,0,VALID,19.7613,VALID,349,VALID,0,
2015-01-05, 01:41:04,VALID,917.715,VALID,0,VALID,98.0676,VALID,0,VALID,19.8018,VALID,356,VALID,0,
2015-01-05, 01:42:04,VALID,917.754,VALID,0,VALID,98.0752,VALID,0,VALID,19.8228,VALID,21,VALID,0,
2015-01-05, 01:43:04,VALID,917.685,VALID,0,VALID,98.0752,VALID,0,VALID,19.7823,VALID,5,VALID,0,
2015-01-05, 01:44:04,VALID,917.718,VALID,0,VALID,98.0676,VALID,0,VALID,19.8213,VALID,5,VALID,0,
2015-01-05, 01:45:04,VALID,917.7,VALID,0,VALID,98.0752,VALID,0,VALID,19.7823,VALID,254,VALID,0,
2015-01-05, 01:46:04,VALID,917.702,VALID,0,VALID,98.0829,VALID,0,VALID,19.7823,VALID,256,VALID,0,
2015-01-05, 01:47:04,VALID,917.708,VALID,0,VALID,98.06,VALID,0,VALID,19.8018,VALID,4,VALID,0,
2015-01-05, 01:48:04,VALID,917.711,VALID,0,VALID,98.0524,VALID,0,VALID,19.8213,VALID,4,VALID,0,
2015-01-05, 01:49:04,VALID,917.694,VALID,0,VALID,98.0676,VALID,0,VALID,19.8213,VALID,4,VALID,0,
2015-01-05, 01:50:04,VALID,917.69,VALID,0,VALID,98.0905,VALID,0,VALID,19.8003,VALID,2,VALID,0,
2015-01-05, 01:51:04,VALID,917.705,VALID,0,VALID,98.0829,VALID,0,VALID,19.8213,VALID,6,VALID,0,
2015-01-05, 01:52:04,VALID,917.709,VALID,0,VALID,98.0829,VALID,0,VALID,19.8213,VALID,26,VALID,0,
2015-01-05, 01:53:04,VALID,917.718,VALID,0,VALID,98.0829,VALID,0,VALID,19.8018,VALID,16,VALID,0,
2015-01-05, 01:54:04,VALID,917.715,VALID,0,VALID,98.0829,VALID,0,VALID,19.8213,VALID,26,VALID,0,
2015-01-05, 01:55:04,VALID,917.726,VALID,0,VALID,98.0752,VALID,0,VALID,19.8018,VALID,37,VALID,0,
2015-01-05, 01:56:04,VALID,917.756,VALID,0,VALID,98.0981,VALID,0,VALID,19.7823,VALID,127,VALID,0,
2015-01-05, 01:57:04,VALID,917.744,VALID,0,VALID,98.0829,VALID,0,VALID,19.8033,VALID,127,VALID,0,
2015-01-05, 01:58:04,VALID,917.733,VALID,0,VALID,98.0676,VALID,0,VALID,19.7823,VALID,127,VALID,0,
2015-01-05, 01:59:04,VALID,917.769,VALID,0.2,VALID,98.1057,VALID,0,VALID,19.7823,VALID,127,VALID,0,
2015-01-05, 02:00:04,VALID,917.772,VALID,0,VALID,98.0905,VALID,0,VALID,19.7823,VALID,127,VALID,0,
2015-01-05, 02:01:04,VALID,917.744,VALID,0,VALID,98.0905,VALID,0,VALID,19.7808,VALID,117,VALID,0,
2015-01-05, 02:02:04,VALID,917.737,VALID,0,VALID,98.0981,VALID,0.107441,VALID,19.7808,VALID,117,VALID,0,
2015-01-05, 02:03:04,VALID,917.733,VALID,0,VALID,98.0829,VALID,0.107441,VALID,19.7808,VALID,117,VALID,0,
2015-01-05, 02:04:04,VALID,917.745,VALID,0,VALID,98.0981,VALID,0,VALID,19.7418,VALID,43,VALID,0,
2015-01-05, 02:05:04,VALID,917.754,VALID,0,VALID,98.0981,VALID,0,VALID,19.7613,VALID,43,VALID,0,
2015-01-05, 02:06:04,VALID,917.741,VALID,0,VALID,98.0905,VALID,0,VALID,19.7808,VALID,43,VALID,0,
2015-01-05, 02:07:04,VALID,917.726,VALID,0,VALID,98.0981,VALID,0,VALID,19.8003,VALID,43,VALID,0,
2015-01-05, 02:08:04,VALID,917.713,VALID,0,VALID,98.0829,VALID,0,VALID,19.8003,VALID,43,VALID,0,
2015-01-05, 02:09:04,VALID,917.724,VALID,0,VALID,98.0829,VALID,0.107441,VALID,19.8183,VALID,43,VALID,0,
2015-01-05, 02:10:04,VALID,917.704,VALID,0,VALID,98.1134,VALID,0.107441,VALID,19.8003,VALID,183,VALID,0,
2015-01-05, 02:11:04,VALID,917.685,VALID,0,VALID,98.0981,VALID,0,VALID,19.7808,VALID,178,VALID,0,
2015-01-05, 02:12:04,VALID,917.667,VALID,0,VALID,98.0905,VALID,0,VALID,19.7808,VALID,177,VALID,0,
2015-01-05, 02:13:04,VALID,917.664,VALID,0,VALID,98.0981,VALID,0,VALID,19.7598,VALID,190,VALID,0,
2015-01-05, 02:14:04,VALID,917.679,VALID,0,VALID,98.0981,VALID,0.107441,VALID,19.7793,VALID,189,VALID,0,
2015-01-05, 02:15:04,VALID,917.645,VALID,0,VALID,98.0829,VALID,0.107441,VALID,19.8003,VALID,189,VALID,0,
2015-01-05, 02:16:04,VALID,917.671,VALID,0,VALID,98.0752,VALID,0,VALID,19.8003,VALID,178,VALID,0,
2015-01-05, 02:17:04,VALID,917.646,VALID,0.2,VALID,98.0752,VALID,0,VALID,19.8408,VALID,178,VALID,0,
2015-01-05, 02:18:04,VALID,917.715,VALID,0,VALID,98.0676,VALID,0,VALID,19.8213,VALID,219,VALID,0,
2015-01-05, 02:19:04,VALID,917.676,VALID,0,VALID,98.0981,VALID,0,VALID,19.8018,VALID,221,VALID,0,
2015-01-05, 02:20:04,VALID,917.655,VALID,0.2,VALID,98.1134,VALID,0,VALID,19.7628,VALID,225,VALID,0.292969,
2015-01-05, 02:21:04,VALID,917.663,VALID,0,VALID,98.1134,VALID,0,VALID,19.7418,VALID,236,VALID,0.753906,
2015-01-05, 02:22:04,VALID,917.67,VALID,0.2,VALID,98.1134,VALID,0,VALID,19.7028,VALID,236,VALID,0.686719,
2015-01-05, 02:23:04,VALID,917.594,VALID,0,VALID,98.1057,VALID,0,VALID,19.7043,VALID,224,VALID,0.337109,
2015-01-05, 02:24:04,VALID,917.551,VALID,0,VALID,98.1362,VALID,0,VALID,19.7238,VALID,215,VALID,0.287891,
2015-01-05, 02:25:04,VALID,917.526,VALID,0,VALID,98.1134,VALID,0,VALID,19.7043,VALID,359,VALID,0.749219,
2015-01-05, 02:26:04,VALID,917.545,VALID,0,VALID,98.1057,VALID,0,VALID,19.7043,VALID,18,VALID,0.360547,
2015-01-05, 02:27:04,VALID,917.498,VALID,0,VALID,98.1057,VALID,0,VALID,19.7028,VALID,23,VALID,0.976953,
2015-01-05, 02:28:04,VALID,917.5,VALID,0,VALID,98.0981,VALID,0,VALID,19.7043,VALID,360,VALID,0.0289063,
2015-01-05, 02:29:04,VALID,917.482,VALID,0,VALID,98.1057,VALID,0,VALID,19.7043,VALID,16,VALID,0,
2015-01-05, 02:30:04,VALID,917.462,VALID,0,VALID,98.1057,VALID,0,VALID,19.7028,VALID,16,VALID,0,
2015-01-05, 02:31:04,VALID,917.473,VALID,0,VALID,98.0981,VALID,0,VALID,19.7238,VALID,16,VALID,0,
2015-01-05, 02:32:04,VALID,917.461,VALID,0,VALID,98.1057,VALID,0,VALID,19.7043,VALID,16,VALID,0,
2015-01-05, 02:33:04,VALID,917.449,VALID,0,VALID,98.1286,VALID,0,VALID,19.7028,VALID,16,VALID,0,
2015-01-05, 02:34:04,VALID,917.475,VALID,0,VALID,98.121,VALID,0,VALID,19.6848,VALID,330,VALID,0,
2015-01-05, 02:35:04,VALID,917.464,VALID,0,VALID,98.1286,VALID,0,VALID,19.6653,VALID,319,VALID,0,
2015-01-05, 02:36:04,VALID,917.457,VALID,0,VALID,98.121,VALID,0,VALID,19.6653,VALID,319,VALID,0,
2015-01-05, 02:37:04,VALID,917.47,VALID,0,VALID,98.1362,VALID,0,VALID,19.6068,VALID,319,VALID,0,
2015-01-05, 02:38:05,VALID,917.454,VALID,0,VALID,98.1362,VALID,0,VALID,19.6068,VALID,319,VALID,0,
2015-01-05, 02:39:05,VALID,917.422,VALID,0,VALID,98.1591,VALID,0,VALID,19.6068,VALID,319,VALID,0,
2015-01-05, 02:40:05,VALID,917.434,VALID,0,VALID,98.1362,VALID,0,VALID,19.5858,VALID,319,VALID,0,
2015-01-05, 02:41:05,VALID,917.374,VALID,0,VALID,98.121,VALID,0,VALID,19.6068,VALID,345,VALID,0,
2015-01-05, 02:42:05,VALID,917.348,VALID,0,VALID,98.1286,VALID,0,VALID,19.6068,VALID,281,VALID,0,
2015-01-05, 02:43:05,VALID,917.357,VALID,0,VALID,98.1286,VALID,0,VALID,19.6263,VALID,281,VALID,0,
2015-01-05, 02:44:05,VALID,917.335,VALID,0,VALID,98.1362,VALID,0,VALID,19.6068,VALID,281,VALID,0,
2015-01-05, 02:45:05,VALID,917.363,VALID,0,VALID,98.1591,VALID,0,VALID,19.5873,VALID,281,VALID,0,
2015-01-05, 02:46:05,VALID,917.316,VALID,0,VALID,98.1439,VALID,0,VALID,19.5873,VALID,281,VALID,0,
2015-01-05, 02:47:05,VALID,917.342,VALID,0,VALID,98.1439,VALID,0,VALID,19.5873,VALID,283,VALID,0,
2015-01-05, 02:48:05,VALID,917.34,VALID,0,VALID,98.1286,VALID,0,VALID,19.6068,VALID,321,VALID,0,
2015-01-05, 02:49:05,VALID,917.326,VALID,0,VALID,98.1439,VALID,0,VALID,19.6263,VALID,330,VALID,0,
2015-01-05, 02:50:05,VALID,917.289,VALID,0,VALID,98.1286,VALID,0,VALID,19.6068,VALID,30,VALID,0,
2015-01-05, 02:51:05,VALID,917.29,VALID,0,VALID,98.1286,VALID,0,VALID,19.6263,VALID,32,VALID,0,
2015-01-05, 02:52:05,VALID,917.329,VALID,0,VALID,98.121,VALID,0,VALID,19.6068,VALID,12,VALID,0,
2015-01-05, 02:53:05,VALID,917.299,VALID,0,VALID,98.1286,VALID,0,VALID,19.5663,VALID,357,VALID,0,
2015-01-05, 02:54:05,VALID,917.275,VALID,0,VALID,98.1362,VALID,0,VALID,19.5288,VALID,14,VALID,0,
2015-01-05, 02:55:05,VALID,917.29,VALID,0,VALID,98.1362,VALID,0,VALID,19.5498,VALID,347,VALID,0,
2015-01-05, 02:56:05,VALID,917.257,VALID,0,VALID,98.1439,VALID,0,VALID,19.5093,VALID,355,VALID,0,
2015-01-05, 02:57:05,VALID,917.258,VALID,0,VALID,98.1743,VALID,0,VALID,19.5093,VALID,36,VALID,0,
2015-01-05, 02:58:05,VALID,917.239,VALID,0,VALID,98.1515,VALID,0,VALID,19.5288,VALID,33,VALID,0,
2015-01-05, 02:59:05,VALID,917.248,VALID,0,VALID,98.1286,VALID,0,VALID,19.5288,VALID,45,VALID,0,
2015-01-05, 03:00:05,VALID,917.243,VALID,0,VALID,98.1515,VALID,0,VALID,19.5093,VALID,108,VALID,0,
2015-01-05, 03:01:05,VALID,917.223,VALID,0,VALID,98.1439,VALID,0,VALID,19.4883,VALID,76,VALID,0,
2015-01-05, 03:02:05,VALID,917.242,VALID,0,VALID,98.1591,VALID,0.107441,VALID,19.4883,VALID,24,VALID,0,
2015-01-05, 03:03:05,VALID,917.249,VALID,0,VALID,98.1439,VALID,0.107441,VALID,19.4673,VALID,22,VALID,0,
2015-01-05, 03:04:05,VALID,917.242,VALID,0,VALID,98.1591,VALID,0.107441,VALID,19.4883,VALID,23,VALID,0,
2015-01-05, 03:05:05,VALID,917.249,VALID,0,VALID,98.1667,VALID,0,VALID,19.4688,VALID,24,VALID,0,
2015-01-05, 03:06:05,VALID,917.232,VALID,0,VALID,98.1667,VALID,0,VALID,19.4103,VALID,327,VALID,0.416797,
2015-01-05, 03:07:05,VALID,917.218,VALID,0,VALID,98.182,VALID,0.107441,VALID,19.4118,VALID,325,VALID,0,
2015-01-05, 03:08:05,VALID,917.186,VALID,0,VALID,98.2048,VALID,0.107441,VALID,19.3908,VALID,21,VALID,0.00195313,
2015-01-05, 03:09:05,VALID,917.19,VALID,0,VALID,98.1667,VALID,0,VALID,19.3713,VALID,22,VALID,0,
2015-01-05, 03:10:05,VALID,917.163,VALID,0,VALID,98.182,VALID,0,VALID,19.4298,VALID,21,VALID,0,
2015-01-05, 03:11:05,VALID,917.175,VALID,0,VALID,98.1591,VALID,0.107441,VALID,19.4298,VALID,22,VALID,0,
2015-01-05, 03:12:05,VALID,917.148,VALID,0,VALID,98.1667,VALID,0.107441,VALID,19.4298,VALID,9,VALID,0,
2015-01-05, 03:13:05,VALID,917.161,VALID,0,VALID,98.1439,VALID,0.107441,VALID,19.4298,VALID,31,VALID,0,
2015-01-05, 03:14:05,VALID,917.114,VALID,0,VALID,98.1743,VALID,0.107441,VALID,19.4298,VALID,30,VALID,0,
2015-01-05, 03:15:05,VALID,917.131,VALID,0,VALID,98.1667,VALID,0.107441,VALID,19.4103,VALID,351,VALID,0,
2015-01-05, 03:16:05,VALID,917.078,VALID,0,VALID,98.1591,VALID,0,VALID,19.4103,VALID,20,VALID,0,
2015-01-05, 03:17:05,VALID,917.067,VALID,0,VALID,98.1515,VALID,0.107441,VALID,19.4298,VALID,38,VALID,0,
2015-01-05, 03:18:05,VALID,917.055,VALID,0,VALID,98.1591,VALID,0.107441,VALID,19.4088,VALID,37,VALID,0,
2015-01-05, 03:19:05,VALID,916.978,VALID,0,VALID,98.1591,VALID,0,VALID,19.4298,VALID,357,VALID,0,
2015-01-05, 03:20:05,VALID,916.946,VALID,0,VALID,98.1591,VALID,0.107441,VALID,19.3923,VALID,360,VALID,0,
2015-01-05, 03:21:05,VALID,916.92,VALID,0,VALID,98.1896,VALID,0.107441,VALID,19.3713,VALID,34,VALID,0,
2015-01-05, 03:22:05,VALID,916.908,VALID,0,VALID,98.1743,VALID,0,VALID,19.3908,VALID,23,VALID,0,
2015-01-05, 03:23:05,VALID,916.886,VALID,0,VALID,98.1896,VALID,0,VALID,19.3713,VALID,12,VALID,0,
2015-01-05, 03:24:05,VALID,916.88,VALID,0,VALID,98.182,VALID,0.107441,VALID,19.3323,VALID,12,VALID,0,
2015-01-05, 03:25:05,VALID,916.866,VALID,0,VALID,98.1667,VALID,0.107441,VALID,19.3323,VALID,336,VALID,0,
2015-01-05, 03:26:05,VALID,916.853,VALID,0,VALID,98.182,VALID,0,VALID,19.3128,VALID,355,VALID,0,
2015-01-05, 03:27:05,VALID,916.827,VALID,0,VALID,98.1667,VALID,0,VALID,19.3323,VALID,355,VALID,0,
2015-01-05, 03:28:05,VALID,916.826,VALID,0,VALID,98.1896,VALID,0.107441,VALID,19.3323,VALID,355,VALID,0,
2015-01-05, 03:29:05,VALID,916.766,VALID,0,VALID,98.1743,VALID,0,VALID,19.3128,VALID,355,VALID,0,
2015-01-05, 03:30:05,VALID,916.755,VALID,0,VALID,98.1972,VALID,0,VALID,19.2738,VALID,355,VALID,0,
2015-01-05, 03:31:05,VALID,916.74,VALID,0,VALID,98.1896,VALID,0,VALID,19.2933,VALID,355,VALID,0,
2015-01-05, 03:32:05,VALID,916.706,VALID,0,VALID,98.1896,VALID,0,VALID,19.2738,VALID,328,VALID,0,
2015-01-05, 03:33:05,VALID,916.688,VALID,0,VALID,98.1972,VALID,0,VALID,19.2543,VALID,339,VALID,0,
2015-01-05, 03:34:05,VALID,916.703,VALID,0,VALID,98.1972,VALID,0.107441,VALID,19.2543,VALID,344,VALID,0,
2015-01-05, 03:35:05,VALID,916.674,VALID,0,VALID,98.1972,VALID,0,VALID,19.2543,VALID,356,VALID,0,
2015-01-05, 03:36:05,VALID,916.683,VALID,0,VALID,98.1896,VALID,0,VALID,19.2543,VALID,356,VALID,0,
2015-01-05, 03:37:05,VALID,916.61,VALID,0,VALID,98.1667,VALID,0,VALID,19.2738,VALID,357,VALID,0,
2015-01-05, 03:38:05,VALID,916.598,VALID,0,VALID,98.182,VALID,0,VALID,19.2738,VALID,357,VALID,0,
2015-01-05, 03:39:05,VALID,916.578,VALID,0,VALID,98.1667,VALID,0,VALID,19.3128,VALID,357,VALID,0,
2015-01-05, 03:40:05,VALID,916.575,VALID,0,VALID,98.182,VALID,0,VALID,19.3338,VALID,13,VALID,0,
2015-01-05, 03:41:05,VALID,916.565,VALID,0,VALID,98.182,VALID,0,VALID,19.3338,VALID,13,VALID,0,
2015-01-05, 03:42:05,VALID,916.568,VALID,0,VALID,98.1743,VALID,0,VALID,19.3323,VALID,13,VALID,0,
2015-01-05, 03:43:05,VALID,916.545,VALID,0,VALID,98.1743,VALID,0.107441,VALID,19.3518,VALID,13,VALID,0,
2015-01-05, 03:44:05,VALID,916.53,VALID,0,VALID,98.1743,VALID,0.107441,VALID,19.3323,VALID,13,VALID,0,
2015-01-05, 03:45:05,VALID,916.596,VALID,0,VALID,98.182,VALID,0.107441,VALID,19.3338,VALID,13,VALID,0,
2015-01-05, 03:46:05,VALID,916.574,VALID,0,VALID,98.1896,VALID,0,VALID,19.3547,VALID,13,VALID,0,
2015-01-05, 03:47:05,VALID,916.595,VALID,0,VALID,98.1743,VALID,0,VALID,19.3338,VALID,13,VALID,0,
2015-01-05, 03:48:05,VALID,916.587,VALID,0,VALID,98.1743,VALID,0,VALID,19.3533,VALID,13,VALID,0,
2015-01-05, 03:49:05,VALID,916.56,VALID,0,VALID,98.1743,VALID,0,VALID,19.3728,VALID,13,VALID,0,
2015-01-05, 03:50:05,VALID,916.57,VALID,0,VALID,98.1743,VALID,0,VALID,19.3923,VALID,13,VALID,0,
2015-01-05, 03:51:05,VALID,916.553,VALID,0,VALID,98.1743,VALID,0,VALID,19.3923,VALID,13,VALID,0,
2015-01-05, 03:52:05,VALID,916.523,VALID,0,VALID,98.1591,VALID,0,VALID,19.3937,VALID,13,VALID,0,
2015-01-05, 03:53:05,VALID,916.501,VALID,0,VALID,98.1743,VALID,0,VALID,19.3923,VALID,13,VALID,0,